User: anonymous   Login
Location: Keppel Henge
(44.7900°N, 80.9447°W)
Time: 13:46:43
(UTC-04:00)
Language:

Hubble Space Telescope - Orbit

View from above orbital plane
View from above orbital plane
View from above satellite
View from above satellite

Ground track
Ground track

The orbit data is extracted from the following two-line orbital elements,

1 20580U 90037B   18224.93320197 +.00000402 +00000-0 +13616-4 0  9992
2 20580 028.4696 099.9729 0002756 034.4065 087.8284 15.09075263353960
Epoch (UTC): 12 August 2018 22:23:48
Eccentricity: 0.0002756
inclination: 28.4696°
perigee height: 537 km
apogee height: 541 km
right ascension of ascending node: 99.9729°
argument of perigee: 34.4065°
revolutions per day: 15.09075263
mean anomaly at epoch: 87.8284°
orbit number at epoch: 35396

The dashed part of the orbit path shows where the satellite is in the earth's shadow,  

DLR